| time (UTC) | temp C | wind direction | speed KPH | gust KPH | rain 1hr cm | rain 24hr cm | rain mn cm | humidity % | barometer mb |
| 20260504044533 | 6 | 297 | 0.0 | 0.0 | 0.00 | 0.00 | 0.00 | 61 | 1014.4 |
| 20260504043030 | 6 | 297 | 0.0 | 0.0 | 0.00 | 0.00 | 0.00 | 60 | 1014.4 |
| 20260504041517 | 6 | 297 | 0.0 | 0.0 | 0.00 | 0.00 | 0.00 | 57 | 1014.3 |
| 20260504040018 | 6 | 297 | 0.0 | 0.0 | 0.00 | 0.00 | 0.00 | 59 | 1014.2 |
| 20260504034511 | 6 | 297 | 0.0 | 0.0 | 0.00 | 0.00 | 0.00 | 60 | 1014.3 |
| 20260504033009 | 7 | 297 | 0.0 | 0.0 | 0.00 | 0.00 | 0.00 | 60 | 1014.6 |
| 20260504031507 | 7 | 297 | 0.0 | 0.0 | 0.00 | 0.00 | 0.00 | 59 | 1014.3 |
| 20260504030005 | 7 | 257 | 0.0 | 0.0 | 0.00 | 0.00 | 0.00 | 58 | 1014.3 |
| 20260504024503 | 7 | 257 | 0.0 | 0.0 | 0.00 | 0.00 | 0.00 | 56 | 1014.2 |
| 20260504023100 | 7 | 257 | 0.0 | 0.0 | 0.00 | 0.00 | 0.00 | 57 | 1014.1 |
| 20260504021601 | 8 | 257 | 0.0 | 0.0 | 0.00 | 0.00 | 0.00 | 56 | 1014.1 |
| 20260504020107 | 8 | 257 | 0.0 | 0.0 | 0.00 | 0.00 | 0.00 | 52 | 1014.0 |
| 20260504014557 | 8 | 257 | 0.0 | 0.0 | 0.00 | 0.00 | 0.00 | 44 | 1013.7 |
| 20260504013155 | 9 | 257 | 0.0 | 0.0 | 0.00 | 0.00 | 0.00 | 41 | 1013.7 |
| 20260504011548 | 10 | 257 | 0.0 | 0.0 | 0.00 | 0.00 | 0.00 | 40 | 1013.4 |
| 20260504010046 | 10 | 257 | 0.0 | 0.0 | 0.00 | 0.00 | 0.00 | 40 | 1013.3 |
| 20260504004546 | 11 | 257 | 0.0 | 0.0 | 0.00 | 0.00 | 0.00 | 37 | 1013.3 |
| 20260504003046 | 12 | 257 | 0.0 | 0.0 | 0.00 | 0.00 | 0.00 | 32 | 1013.3 |
| 20260504001540 | 12 | 256 | 0.0 | 0.0 | 0.00 | 0.00 | 0.00 | 32 | 1013.3 |
| 20260504000045 | 13 | 256 | 0.0 | 0.0 | 0.00 | 0.00 | 0.00 | 28 | 1013.2 |
| 20260503234536 | 14 | 256 | 0.0 | 0.0 | 0.00 | 0.00 | 0.00 | 24 | 1012.9 |
| 20260503233035 | 15 | 287 | 0.0 | 0.0 | 0.00 | 0.00 | 0.00 | 21 | 1012.9 |
| 20260503231533 | 15 | 272 | 0.0 | 4.8 | 0.00 | 0.00 | 0.00 | 20 | 1012.9 |
| 20260503230032 | 16 | 226 | 0.0 | 12.9 | 0.00 | 0.00 | 0.00 | 19 | 1012.9 |
| 20260503224530 | 16 | 249 | 0.0 | 4.8 | 0.00 | 0.00 | 0.00 | 17 | 1012.7 |
| 20260503223026 | 17 | 225 | 0.0 | 4.8 | 0.00 | 0.00 | 0.00 | 16 | 1012.9 |
| 20260503221525 | 17 | 300 | 1.6 | 12.9 | 0.00 | 0.00 | 0.00 | 16 | 1012.9 |
| 20260503220023 | 17 | 249 | 0.0 | 8.0 | 0.00 | 0.00 | 0.00 | 14 | 1013.1 |
| 20260503214621 | 17 | 330 | 3.2 | 8.0 | 0.00 | 0.00 | 0.00 | 16 | 1013.0 |
| 20260503213017 | 17 | 318 | 4.8 | 16.1 | 0.00 | 0.00 | 0.00 | 16 | 1013.1 |
| 20260503211515 | 17 | 291 | 3.2 | 17.7 | 0.00 | 0.00 | 0.00 | 18 | 1013.1 |
| 20260503210012 | 17 | 286 | 6.4 | 14.5 | 0.00 | 0.00 | 0.00 | 17 | 1013.1 |
| 20260503204510 | 17 | 195 | 1.6 | 14.5 | 0.00 | 0.00 | 0.00 | 17 | 1013.2 |
| 20260503203008 | 16 | 4 | 4.8 | 17.7 | 0.00 | 0.00 | 0.00 | 16 | 1013.4 |
| 20260503201506 | 17 | 350 | 4.8 | 19.3 | 0.00 | 0.00 | 0.00 | 16 | 1013.5 |
| 20260503200001 | 16 | 247 | 3.2 | 11.3 | 0.00 | 0.00 | 0.00 | 18 | 1013.7 |
| 20260503194605 | 16 | 228 | 4.8 | 24.1 | 0.00 | 0.00 | 0.00 | 18 | 1013.9 |
| 20260503193104 | 16 | 300 | 1.6 | 19.3 | 0.00 | 0.00 | 0.00 | 19 | 1014.2 |
| 20260503191604 | 16 | 170 | 3.2 | 9.7 | 0.00 | 0.00 | 0.00 | 22 | 1014.5 |
| 20260503190052 | 16 | 224 | 1.6 | 19.3 | 0.00 | 0.00 | 0.00 | 21 | 1014.7 |
| 20260503184559 | 16 | 76 | 1.6 | 17.7 | 0.00 | 0.00 | 0.00 | 19 | 1014.8 |
| 20260503183046 | 15 | 288 | 4.8 | 14.5 | 0.00 | 0.00 | 0.00 | 20 | 1014.8 |
| 20260503181604 | 15 | 274 | 4.8 | 22.5 | 0.00 | 0.00 | 0.00 | 21 | 1015.0 |
| 20260503180050 | 15 | 233 | 3.2 | 14.5 | 0.00 | 0.00 | 0.00 | 24 | 1015.1 |
| 20260503174545 | 14 | 11 | 1.6 | 14.5 | 0.00 | 0.00 | 0.00 | 23 | 1015.1 |
| 20260503173043 | 14 | 348 | 1.6 | 22.5 | 0.00 | 0.00 | 0.00 | 24 | 1015.4 |
| 20260503171530 | 13 | 127 | 1.6 | 17.7 | 0.00 | 0.00 | 0.00 | 25 | 1015.5 |
| 20260503081544 | 5 | 153 | 0.0 | 3.2 | 0.00 | 0.00 | 0.00 | 54 | 1014.0 |
| 20260503071631 | 4 | 322 | 0.0 | 1.6 | 0.00 | 0.00 | 0.00 | 55 | 1013.5 |